Current weather by "City, St" or "zip code"  
 
Advertise Here

Current Conditions: Bloomington, Monroe County Airport, IN

Fair


69.0 F

Last Updated on Jul 26 2021, 11:53 pm EDT
Humidity: 93%
Wind Speed: N 0.0 mph
Barometer 30.04 in
Dewpoint: 66.9 F
Visibility: 10.00 mi
Precip: --
Heat Index: NA
Wind Chill: NA
Current conditions at:

Bloomington, Monroe County Airport, IN (KBMG)

Lat: 39.14306 Lon: 86.61667

Local Radar Image active severe weather and emergency alerts image image weather storm and storm spotter reports image weather observation monitoring service image
Local
Radar
Active
Alerts
Storm Reports Obs
Monitoring

Sign-up For Email & Text Message Weather Alert Notification Services


Advertise Here

Observation History for Bloomington, Monroe County Airport, IN


Time Wind
(mph)
Vis
(mi)
Weather Precip (in) Temperature (F) Relative
Humidity
Wind
Chill
(F)
Heat
Index
(F)
Pressure
Air Dwpt altimeter
(in)
sea level
(mb)
Rmks
11:53 pm EDT N 0.0 10.00 Fair -- 69.0 66.9 93% NA NA 30.04 1016.5
10:53 pm EDT N 0.0 10.00 Fair -- 72.0 68.0 87% NA NA 30.04 1016.4
9:53 pm EDT N 0.0 10.00 Fair -- 73.0 69.1 87% NA NA 30.03 1015.9
8:53 pm EDT N 0.0 10.00 A Few Clouds -- 77.0 71.1 82% NA NA 30.00 1015.1
7:53 pm EDT N 6.9 10.00 Fair -- 85.0 66.0 53% NA 87 30.00 1014.9
6:53 pm EDT N 6.9 10.00 Fair -- 89.0 62.1 41% NA 89 30.00 1014.9
5:53 pm EDT N 0.0 10.00 Fair -- 90.0 61.0 38% NA 90 30.00 1015.1
4:53 pm EDT N 5.8 10.00 Fair -- 90.0 63.0 41% NA 91 30.01 1015.1
3:53 pm EDT NE 9.2 10.00 Fair -- 90.0 60.1 37% NA 90 30.02 1015.6
2:53 pm EDT NE 9.2 10.00 Fair -- 89.0 64.0 43% NA 90 30.02 1015.7
1:53 pm EDT NE 8.1 10.00 Fair -- 89.0 64.9 45% NA 91 30.03 1015.7
12:53 pm EDT N 0.0 10.00 Fair -- 89.0 68.0 50% NA 93 30.03 1015.9
11:53 am EDT N 5.8 10.00 Fair -- 85.0 71.1 63% NA 90 30.04 1016.1
10:53 am EDT N 4.6 10.00 Fair -- 84.0 71.1 65% NA 89 30.03 1015.8
9:53 am EDT N 5.8 10.00 Fair -- 82.0 73.0 74% NA 87 30.03 1015.7
8:53 am EDT N 0.0 9.00 Fair -- 78.0 72.0 82% NA NA 30.02 1015.7
7:53 am EDT N 0.0 5.00 Fog/Mist -- 72.0 70.0 94% NA NA 30.01 1015.5
6:53 am EDT N 0.0 5.00 Fog/Mist -- 70.0 69.1 97% NA NA 30.00 1015.0
5:53 am EDT N 0.0 8.00 A Few Clouds -- 72.0 70.0 94% NA NA 29.99 1014.6
4:53 am EDT N 0.0 6.00 Fog/Mist -- 72.0 70.0 94% NA NA 29.98 1014.3
3:53 am EDT N 0.0 8.00 A Few Clouds -- 72.0 70.0 94% NA NA 29.97 1013.9
2:53 am EDT N 0.0 0.25 Fog -- 71.0 70.0 96% NA NA 29.97 1014.0
1:53 am EDT N 0.0 0.75 Fog/Mist -- 73.0 71.1 94% NA NA 29.98 1014.3
12:53 am EDT N 0.0 0.25 Fog -- 73.0 71.1 94% NA NA 29.97 1014.1

Regional Weather Observation


Putnam County Regional Airport, IN (KGPC)

Fair
70.0 F

Crawfordsville Municipal Airport, IN (KCFJ)

Fair
64.0 F

Indianapolis International Airport, IN (KIND)

Fair
76.0 F

Terre Haute Regional Airport, IN (KHUF)

Fair
72.0 F

Indianapolis, Eagle Creek Airpark, IN (KEYE)

Fair
75.0 F

Greenwood Municipal Airport, IN (KHFY)

Fair
74.0 F
Advertise Here

Advertise Here